Regional Weather Roundup
Issued by NWS

Home | Current Version | Previous Version | Text Only | Print | Product List | Glossary Off
Versions: 1 2 3 4 5 6 7 8 9 10 11 12 13 14 15 16 17 18 19 20 21 22 23 24 25 26 27 28 29 30 31 32 33 34 35 36 37 38 39 40 41 42 43 44 45 46 47 48 49

000
ASUS43 KDMX 281207
RWRIA

WEATHER ROUNDUP FOR IOWA
NATIONAL WEATHER SERVICE DES MOINES IA
700 AM CDT FRI AUG 28 2015

NOTE: "FAIR" INDICATES FEW OR NO CLOUDS BELOW 12,000 FEET WITH NO
SIGNIFICANT WEATHER AND/OR OBSTRUCTIONS TO VISIBILITY.

* - THESE STATIONS ARE NOT NWS STATIONS...THUS NOT UNDER NWS
QUALITY CONTROL.  THEY ALSO DO NOT REPORT WEATHER SUCH
AS PRECIPITATION OR FOG.

IAZ001>003-012>014-020>022-031>034-043>046-281300-
   NORTHWEST IOWA

CITY           SKY/WX    TMP DP  RH WIND       PRES   REMARKS
CARROLL *      CLOUDY    63  63 100 SE25G33   29.85F FOG
CHEROKEE *     HVY RAIN  63  63 100 E12G18    29.87S
DENISON *      RAIN      66  64  94 VRB3G20   29.81F
LE MARS *      RAIN      64  64 100 E13       29.85S
ORANGE CITY *  DRIZZLE   64  64 100 E9        29.87S
SHELDON *      CLOUDY    63  63 100 E10G18    29.88S FOG
SIOUX CITY     LGT RAIN  66  62  87 E10       29.81S
6HR MIN TEMP:  66; 6HR MAX TEMP:  67; 6HR PCP:  1.79;

SPENCER        CLOUDY    63  61  93 E14       29.92F FOG
6HR MIN TEMP:  63; 6HR MAX TEMP:  65; 6HR PCP:  0.16;

STORM LAKE *   RAIN      63  63 100 E14G24    29.88F
$$

IAZ055>058-069>071-079>083-090>094-281300-
   SOUTHWEST IOWA

CITY           SKY/WX    TMP DP  RH WIND       PRES   REMARKS
ATLANTIC *     LGT RAIN  66  64  94 SE17G25   29.86R
AUDUBON *      RAIN      63  61  94 SE17G25   29.88R
CLARINDA *     MOCLDY    66  66 100 S8        29.90S
COUNCIL BLFS * CLOUDY    68  66  94 S12       29.84R
CRESTON *      CLOUDY    63  63 100 SE17G23   29.95S
HARLAN  *      CLOUDY    66  66 100 S12G18    29.89R
LAMONI         CLOUDY    65  61  87 E5        29.98R
6HR MIN TEMP:  65; 6HR MAX TEMP:  67;

RED OAK *      CLOUDY    66  66 100 SE9G16    29.86S
SHENANDOAH *   CLOUDY    68  66  94 SE13G22   29.85S
$$

IAZ047>049-059>061-072>074-084-281300-
   CENTRAL IOWA

CITY           SKY/WX    TMP DP  RH WIND       PRES   REMARKS
AMES           RAIN      62  62 100 SE7       29.98F FOG
6HR MIN TEMP:  62; 6HR MAX TEMP:  64; 6HR PCP:  0.33;

ANKENY *       LGT RAIN  63  63 100 SE5       30.00S
CHARITON *     LGT RAIN  63  61  94 SE8       29.99F
DES MOINES     LGT RAIN  64  60  87 E12       29.98F
6HR MIN TEMP:  64; 6HR MAX TEMP:  67; 6HR PCP:  0.10;

GRINNELL*      DRIZZLE   61  59  94 E12       30.00F
KNOXVILLE *    CLOUDY    63  59  88 SE6G13    29.98F
MARSHALLTOWN   LGT RAIN  62  60  93 SE10      30.01F
6HR MIN TEMP:  61; 6HR MAX TEMP:  64; 6HR PCP:  0.09;

PELLA *        LGT RAIN  61  61 100 SE6       30.01F
PERRY *        RAIN      63  63 100 E12G20    29.94F
$$

IAZ004>006-015-016-023>025-035-036-281300-
   NORTH CENTRAL IOWA

CITY           SKY/WX    TMP DP  RH WIND       PRES   REMARKS
ALGONA *       DRIZZLE   63  63 100 E12G18    29.97F
CLARION *      RAIN      63  61  94 E16       30.00F
ESTHERVILLE    CLOUDY    62  61  96 E14       29.95F
6HR MIN TEMP:  62; 6HR MAX TEMP:  63; 6HR PCP:  0.10;

FORT DODGE *   CLOUDY    63  57  82 SE16G26   29.96F
MASON CITY     RAIN      61  61 100 SE7       30.06R FOG
6HR MIN TEMP:  61; 6HR MAX TEMP:  63; 6HR PCP:  0.49;

FOREST CITY *  HVY RAIN  61  61 100 SE7       30.03S
IOWA FALLS *   RAIN      63  61  94 SE3       30.06R
$$

IAZ007>011-017>019-026>030-037>042-050>054-066-281300-
   NORTHEAST IOWA

CITY           SKY/WX    TMP DP  RH WIND       PRES   REMARKS
CEDAR RAPIDS   CLOUDY    60  59  96 SE6       30.06F
6HR MIN TEMP:  58; 6HR MAX TEMP:  63;

CHARLES CITY * MOCLDY    61  61 100 S7        30.07R
CLINTON *      CLOUDY    59  57  94 SE3       30.14S
DECORAH *      CLOUDY    61  59  94 SE3       30.07S
DUBUQUE        CLOUDY    60  58  92 S6        30.11R
6HR MIN TEMP:  59; 6HR MAX TEMP:  63;

MONTICELLO *   CLEAR     61  59  94 SE6       30.09F
OELWEIN *        N/A     61  59  94 SE5       30.08S
WATERLOO       LGT RAIN  62  60  93 SE8       30.06R
6HR MIN TEMP:  62; 6HR MAX TEMP:  65; 6HR PCP:  0.16;

$$

IAZ064-065-067-068-078-281300-
   EAST CENTRAL IOWA

CITY           SKY/WX    TMP DP  RH WIND       PRES   REMARKS
DAVENPORT      CLOUDY    59  57  93 CALM      30.12R
6HR MIN TEMP:  59; 6HR MAX TEMP:  63;

IOWA CITY      CLOUDY    61  58  90 CALM      30.08F
6HR MIN TEMP:  60; 6HR MAX TEMP:  63;

MT. PLEASANT * CLOUDY    60  57  88 E3        30.09F
MUSCATINE *    CLEAR     59  57  94 E3        30.10F
QUAD CITIES    CLOUDY    59  56  89 CALM      30.12R
6HR MIN TEMP:  59; 6HR MAX TEMP:  64;

$$

IAZ062-063-075>077-085>089-095>099-281300-
   SOUTHEAST IOWA

CITY           SKY/WX    TMP DP  RH WIND       PRES   REMARKS
BURLINGTON     CLOUDY    61  58  90 CALM      30.10R
6HR MIN TEMP:  60; 6HR MAX TEMP:  63;

FAIRFIELD *    MOCLDY    61  57  88 SE10      30.04F
FORT MADISON * CLEAR     61  57  88 CALM      30.10S
KEOKUK *       CLEAR     61  59  94 CALM      30.09R
OSKALOOSA *    LGT RAIN  60  58  94 E9        30.03S
CENTERVILLE *  CLEAR     61  59  94 SE7       30.03S
OTTUMWA        CLOUDY    60  59  96 E8        30.02F
6HR MIN TEMP:  60; 6HR MAX TEMP:  64; 6HR PCP: TRACE;

WASHINGTON *     N/A    N/A N/A N/A MISG        N/A
$$

ABBREVIATIONS USED IN REMARKS
   TC - TEMPERATURES IN CELSIUS
  WCI - WIND CHILL INDEX
   HX - HEAT INDEX
  VSB - VISIBILITY
$$



USA.gov is the U.S. government's official web portal to all federal, state and local government web resources and services.